Regional Weather Roundup
Issued by NWS

Home | Current Version | Previous Version | Text Only | Print | Product List | Glossary On
Versions: 1 2 3 4 5 6 7 8 9 10 11 12 13 14 15 16 17 18 19 20 21 22 23 24 25 26 27 28
000
ASUS44 KBMX 031010
RWRAL

ALABAMA REGIONAL WEATHER ROUNDUP
NATIONAL WEATHER SERVICE BIRMINGHAM AL
500 AM CDT TUE AUG 03 2021

NOTE: "FAIR" INDICATES FEW OR NO CLOUDS BELOW 12,000 FEET
WITH NO SIGNIFICANT WEATHER AND/OR OBSTRUCTIONS TO VISIBILITY.

THE REMARK "TC" DENOTES TEMPERATURE IN DEGREES CELSIUS.

ALZ001>011-014-016>018-020-031100-
NORTH ALABAMA

CITY           SKY/WX    TMP DP  RH WIND       PRES   REMARKS
MUSCLE SHOALS  NOT AVBL
HUNTSVILLE     CLEAR     65  63  93 NW3       29.99S
DECATUR        CLEAR     64  62  93 CALM      30.00R
HALEYVILLE     FAIR      65  64  97 CALM      30.03R FOG
GADSDEN        CLEAR     70  70 100 CALM      29.98R
$$

ALZ012-013-022-023-030>036-040>044-031100-
WEST CENTRAL ALABAMA

CITY           SKY/WX    TMP DP  RH WIND       PRES   REMARKS
TUSCALOOSA     PTCLDY    71  70  96 CALM      29.97R
DEMOPOLIS      FAIR     N/A N/A N/A MISG      29.96S HAZE
$$

ALZ015-024>026-033>036-041>044-031100-
CENTRAL ALABAMA

CITY           SKY/WX    TMP DP  RH WIND       PRES   REMARKS
BIRMINGHAM     PTCLDY    70  67  90 CALM      29.99F
MONTGOMERY     MOCLDY    71  69  93 W3        29.96R
SHELBY CO ARPT FOG       71  70  96 NW5       29.97S VSB 1/4
MAXWELL AFB    CLOUDY    70  69  96 W3        29.93S
GREENVILLE     CLOUDY    71  66  84 CALM      29.95S HAZE
SELMA          FAIR      70  70 100 CALM      29.95F FOG
PRATTVILLE     FAIR      68  68 100 CALM      29.95S
BESSEMER       FOG       70  70 100 CALM      29.98S VSB 3/4
TALLADEGA      FOG       70  70 100 CALM      29.98S VSB 1/2
PELL CITY      MOCLDY    70  70 100 CALM      29.98R FOG
SYLACAUGA      CLOUDY    71  71  99 CALM      29.98S FOG
$$

ALZ019-021-028-029-037-038-045>048-031100-
EAST CENTRAL ALABAMA

CITY           SKY/WX    TMP DP  RH WIND       PRES   REMARKS
ANNISTON       CLOUDY    72  71  97 CALM      29.97S FOG
ALEXANDER CITY PTCLDY    72  71  97 CALM      29.97S
AUBURN         CLOUDY    70  69  97 CALM      29.98S
$$

ALZ051>064-031100-
SOUTHWEST ALABAMA

CITY           SKY/WX    TMP DP  RH WIND       PRES   REMARKS
MOBILE         CLOUDY    73  72  96 NE3       29.94R
BROOKLEY FIELD CLOUDY    76  74  93 N7        29.94R
EVERGREEN      CLOUDY    74  70  87 N3        29.95S
$$

ALZ049-050-065>069-031100-
SOUTHEAST ALABAMA

CITY           SKY/WX    TMP DP  RH WIND       PRES   REMARKS
DOTHAN         CLOUDY    73  72  96 NW6       29.97S
OZARK          CLOUDY    73  72  99 NW5       29.93S
TROY           CLOUDY    72  66  81 N3        29.96S
EUFAULA        CLOUDY    72  70  93 CALM      29.95S
$$



USA.gov is the U.S. government's official web portal to all federal, state and local government web resources and services.